EW9362 Weather Reports


Display with metric or nautical units.
time (UTC)temp
F
wind
direction
speed
MPH
gust
MPH
rain 1hr
in
rain 24hr
in
rain mn
in
humidity
%
barometer
mb
20260502152031 50 13 2.0 4.0 0.00 0.00 0.00 62 1018.2
20260502151556 51 14 1.0 2.0 0.00 0.00 0.00 63 1018.3
20260502151031 51 82 0.0 5.0 0.00 0.00 0.00 63 1018.3
20260502150531 50 0 1.0 5.0 0.00 0.00 0.00 64 1018.3
20260502130531 45 46 0.0 2.0 0.00 0.00 0.00 72 1018.0
20260502123531 44 129 0.0 4.0 0.00 0.00 0.00 74 1017.7
20260502123046 44 35 0.0 3.0 0.00 0.00 0.00 74 1017.7
20260502122530 44 77 0.0 4.0 0.00 0.00 0.00 76 1017.7
20260502122031 44 0 0.0 7.0 0.00 0.00 0.00 76 1017.6
20260502121555 44 150 0.0 7.0 0.00 0.00 0.00 76 1017.5
20260502121035 44 177 0.0 4.0 0.00 0.00 0.00 77 1017.5
20260502120532 44 114 0.0 4.0 0.00 0.00 0.00 76 1017.3
20260502115534 43 108 0.0 4.0 0.00 0.00 0.00 78 1017.4
20260502115031 42 117 1.0 4.0 0.00 0.00 0.00 79 1017.2
20260502114547 42 142 1.0 3.0 0.00 0.00 0.00 79 1017.1
20260502114031 42 140 0.0 4.0 0.00 0.00 0.00 79 1017.2
20260502113533 42 120 0.0 4.0 0.00 0.00 0.00 78 1017.2
20260502113046 42 139 1.0 5.0 0.00 0.00 0.00 78 1017.4
20260502112531 42 174 0.0 5.0 0.00 0.00 0.00 79 1017.4
20260502112031 42 133 0.0 3.0 0.00 0.00 0.00 79 1017.2
20260502111554 42 0 0.0 3.0 0.00 0.00 0.00 78 1017.2
20260502111032 42 0 0.0 2.0 0.00 0.00 0.00 79 1017.2
20260502110531 42 0 0.0 2.0 0.00 0.00 0.00 78 1017.1
20260502110049 42 163 0.0 2.0 0.00 0.00 0.00 78 1016.7
20260502105533 42 132 0.0 2.0 0.00 0.00 0.00 77 1016.7
20260502105031 42 143 0.0 1.0 0.00 0.00 0.00 77 1017.0
20260502104545 42 0 0.0 1.0 0.00 0.00 0.00 77 1017.1
20260502104031 42 0 0.0 3.0 0.00 0.00 0.00 78 1017.0
20260502103531 42 0 0.0 3.0 0.00 0.00 0.00 78 1016.8
20260502103050 41 0 0.0 1.0 0.00 0.00 0.00 79 1016.8
20260502102531 42 0 0.0 1.0 0.00 0.00 0.00 79 1016.8
20260502102030 42 0 0.0 0.0 0.00 0.00 0.00 79 1016.7
20260502101605 42 0 0.0 0.0 0.00 0.00 0.00 79 1016.8
20260502101030 42 0 0.0 1.0 0.00 0.00 0.00 79 1016.8
20260502100531 42 0 0.0 1.0 0.00 0.00 0.00 79 1016.8
20260502091030 42 0 0.0 1.0 0.00 0.00 0.00 78 1016.8
20260502090532 43 0 0.0 1.0 0.00 0.00 0.00 78 1016.8
20260502071031 43 0 0.0 1.0 0.00 0.00 0.00 77 1016.8
20260502070533 43 0 0.0 1.0 0.00 0.00 0.00 77 1016.6
20260502070046 44 0 0.0 1.0 0.00 0.00 0.00 76 1016.6
20260502065531 44 0 0.0 1.0 0.00 0.00 0.00 76 1016.7
20260502065029 43 0 0.0 1.0 0.00 0.00 0.00 77 1016.8
20260502064545 43 0 0.0 1.0 0.00 0.00 0.00 77 1016.7
20260502064029 43 0 0.0 0.0 0.00 0.00 0.00 78 1016.8
20260502063529 42 0 0.0 0.0 0.00 0.00 0.00 80 1016.9
20260502063042 42 0 0.0 0.0 0.00 0.00 0.00 81 1016.9
20260502062531 42 0 0.0 0.0 0.00 0.00 0.00 83 1017.1
20260502062031 41 0 0.0 0.0 0.00 0.00 0.00 84 1017.0
20260502061548 41 0 0.0 0.0 0.00 0.00 0.00 86 1017.0
20260502061030 41 0 0.0 0.0 0.00 0.00 0.00 85 1016.9
20260502060528 41 0 0.0 0.0 0.00 0.00 0.00 84 1016.9
20260502060047 42 0 0.0 0.0 0.00 0.00 0.00 85 1017.0
20260502055531 41 0 0.0 0.0 0.00 0.00 0.00 85 1017.0
20260502055031 42 0 0.0 0.0 0.00 0.00 0.00 86 1017.1
20260502054544 42 0 0.0 0.0 0.00 0.00 0.00 86 1017.1
20260502054029 41 0 0.0 0.0 0.00 0.00 0.00 86 1017.3
20260502053530 42 0 0.0 0.0 0.00 0.00 0.00 86 1017.4
20260502053052 41 0 0.0 0.0 0.00 0.00 0.00 86 1017.4
20260502052530 41 0 0.0 0.0 0.00 0.00 0.00 86 1017.5
20260502052031 41 0 0.0 0.0 0.00 0.00 0.00 86 1017.4
20260502051556 41 0 0.0 0.0 0.00 0.00 0.00 85 1017.4
20260502051031 41 0 0.0 0.0 0.00 0.00 0.00 85 1017.5
20260502050530 42 0 0.0 0.0 0.00 0.00 0.00 85 1017.4
20260502050055 41 0 0.0 0.0 0.00 0.00 0.00 85 1017.5
20260502045530 41 0 0.0 0.0 0.00 0.00 0.00 85 1017.5
20260502045028 41 0 0.0 0.0 0.00 0.00 0.00 85 1017.3
20260502044544 42 0 0.0 0.0 0.00 0.00 0.00 85 1017.3
20260502044031 41 0 0.0 0.0 0.00 0.00 0.00 85 1017.5
20260502043531 41 0 0.0 0.0 0.00 0.00 0.00 84 1017.5
20260502043044 42 0 0.0 0.0 0.00 0.00 0.00 83 1017.5
20260502042530 42 0 0.0 0.0 0.00 0.00 0.00 84 1017.4
20260502042031 42 0 0.0 0.0 0.00 0.00 0.00 83 1017.5
20260502041543 43 0 0.0 0.0 0.00 0.00 0.00 83 1017.4
20260502041030 43 0 0.0 0.0 0.00 0.00 0.00 83 1017.4
20260502040532 43 0 0.0 0.0 0.00 0.00 0.00 82 1017.5
20260502040050 43 0 0.0 0.0 0.00 0.00 0.00 82 1017.5
20260502035528 44 0 0.0 0.0 0.00 0.00 0.00 81 1017.2
20260502035028 44 0 0.0 0.0 0.00 0.00 0.00 78 1017.5
20260502034546 45 0 0.0 0.0 0.00 0.00 0.00 78 1017.4
20260502034033 45 0 0.0 0.0 0.00 0.00 0.00 78 1017.2
20260502033528 45 0 0.0 0.0 0.00 0.00 0.00 76 1017.2
20260502033047 45 0 0.0 0.0 0.00 0.00 0.00 75 1017.2
20260502032528 46 0 0.0 0.0 0.00 0.00 0.00 76 1017.2
20260502032028 46 0 0.0 0.0 0.00 0.00 0.00 75 1017.3
20260502031545 46 0 0.0 0.0 0.00 0.00 0.00 75 1017.4
20260502031030 46 0 0.0 0.0 0.00 0.00 0.00 74 1017.5
20260502030529 46 0 0.0 0.0 0.00 0.00 0.00 71 1017.5
20260502030044 47 0 0.0 0.0 0.00 0.00 0.00 70 1017.5
20260502025532 47 0 0.0 0.0 0.00 0.00 0.00 70 1017.4
20260502025029 47 0 0.0 0.0 0.00 0.00 0.00 71 1017.4
20260502024545 46 0 0.0 0.0 0.00 0.00 0.00 72 1017.3
20260502024029 46 0 0.0 0.0 0.00 0.00 0.00 73 1017.4
20260502023530 46 0 0.0 0.0 0.00 0.00 0.00 72 1017.5
20260502023047 47 0 0.0 0.0 0.00 0.00 0.00 71 1017.4
20260502022528 47 0 0.0 0.0 0.00 0.00 0.00 70 1017.3
20260502022031 48 0 0.0 0.0 0.00 0.00 0.00 68 1017.2
20260502021544 49 0 0.0 0.0 0.00 0.00 0.00 67 1017.3
20260502021028 49 0 0.0 0.0 0.00 0.00 0.00 65 1017.1
20260502020531 50 0 0.0 1.0 0.00 0.00 0.00 64 1017.1
20260502020044 50 0 0.0 1.0 0.00 0.00 0.00 63 1017.0
20260502015529 50 83 0.0 0.0 0.00 0.00 0.00 63 1017.0
20260502015031 50 0 0.0 0.0 0.00 0.00 0.00 63 1016.8
20260502014541 50 0 0.0 0.0 0.00 0.00 0.00 62 1016.8
20260502014029 51 0 0.0 0.0 0.00 0.00 0.00 61 1016.8
20260502013529 51 0 0.0 1.0 0.00 0.00 0.00 61 1016.6
20260502013050 51 0 0.0 1.0 0.00 0.00 0.00 59 1016.5
20260502012528 52 0 0.0 1.0 0.00 0.00 0.00 58 1016.3
20260502012029 52 0 0.0 1.0 0.00 0.00 0.00 58 1016.2
20260502011603 52 0 0.0 1.0 0.00 0.00 0.00 57 1016.1
20260502011028 53 0 0.0 3.0 0.00 0.00 0.00 56 1016.0
20260502010530 53 0 0.0 4.0 0.00 0.00 0.00 56 1016.0
20260502010046 53 0 1.0 9.0 0.00 0.00 0.00 55 1015.8
20260502005528 53 0 3.0 9.0 0.00 0.00 0.00 55 1015.8
20260502005030 54 76 3.0 8.0 0.00 0.00 0.00 54 1015.6
20260502004554 54 91 2.0 6.0 0.00 0.00 0.00 55 1015.7
20260502004030 54 41 0.0 5.0 0.00 0.00 0.00 54 1015.7
20260502003528 54 352 1.0 5.0 0.00 0.00 0.00 54 1015.7
20260502003046 54 46 0.0 4.0 0.00 0.00 0.00 53 1015.6
20260502002528 55 59 2.0 5.0 0.00 0.00 0.00 53 1015.6
20260502002030 55 0 1.0 6.0 0.00 0.00 0.00 52 1015.5
20260502001549 55 37 2.0 6.0 0.00 0.00 0.00 52 1015.5
20260502001031 56 0 0.0 5.0 0.00 0.00 0.00 51 1015.5
20260502000528 56 48 1.0 6.0 0.00 0.00 0.00 51 1015.3
20260502000055 55 47 1.0 10.0 0.00 0.00 0.00 51 1014.9
20260501235531 55 0 4.0 11.0 0.00 0.00 0.00 51 1014.9
20260501235028 55 26 4.0 11.0 0.00 0.00 0.00 51 1014.6
20260501234542 56 66 4.0 10.0 0.00 0.00 0.00 51 1014.5
20260501234030 56 90 4.0 10.0 0.00 0.00 0.00 50 1014.5
20260501233528 56 26 4.0 8.0 0.00 0.00 0.00 50 1014.4
20260501233047 56 68 3.0 13.0 0.00 0.00 0.00 49 1014.3
20260501232528 57 38 4.0 14.0 0.00 0.00 0.00 48 1014.4
20260501232030 57 10 6.0 15.0 0.00 0.00 0.00 47 1014.4
20260501231552 57 347 7.0 15.0 0.00 0.00 0.00 48 1014.4
20260501231031 57 7 3.0 10.0 0.00 0.00 0.00 50 1014.5
20260501230528 56 10 5.0 10.0 0.00 0.00 0.00 49 1014.5
20260501230044 56 60 3.0 14.0 0.00 0.00 0.00 49 1014.5
20260501225528 56 354 6.0 14.0 0.00 0.00 0.00 50 1014.5
20260501225034 57 58 6.0 14.0 0.00 0.00 0.00 49 1014.5
20260501224545 57 3 6.0 14.0 0.00 0.00 0.00 48 1014.5
20260501224028 58 16 6.0 14.0 0.00 0.00 0.00 47 1014.3
20260501223532 58 13 5.0 12.0 0.00 0.00 0.00 44 1014.4
20260501223047 58 347 7.0 15.0 0.00 0.00 0.00 44 1014.3
20260501222530 58 344 4.0 15.0 0.00 0.00 0.00 44 1014.5
20260501222028 57 341 7.0 14.0 0.00 0.00 0.00 45 1014.4
20260501221606 57 13 6.0 14.0 0.00 0.00 0.00 44 1014.4
20260501221028 58 16 4.0 13.0 0.00 0.00 0.00 45 1014.4
20260501220528 58 345 6.0 13.0 0.00 0.00 0.00 42 1014.4
20260501220052 58 336 6.0 12.0 0.00 0.00 0.00 41 1014.4
20260501215531 57 4 6.0 12.0 0.00 0.00 0.00 43 1014.4
20260501215027 57 28 5.0 11.0 0.00 0.00 0.00 44 1014.4
20260501214546 58 345 4.0 11.0 0.00 0.00 0.00 45 1014.4
20260501214031 58 79 4.0 12.0 0.00 0.00 0.00 43 1014.5
20260501213527 58 354 6.0 13.0 0.00 0.00 0.00 44 1014.5
20260501213044 58 5 8.0 13.0 0.00 0.00 0.00 42 1014.4
20260501212527 59 353 6.0 14.0 0.00 0.00 0.00 43 1014.4
20260501212028 58 8 8.0 14.0 0.00 0.00 0.00 44 1014.5
20260501211541 58 45 5.0 14.0 0.00 0.00 0.00 44 1014.4
20260501211028 58 70 6.0 21.0 0.00 0.00 0.00 44 1014.5
20260501210528 58 41 9.0 21.0 0.00 0.00 0.00 45 1014.4
20260501210047 59 338 8.0 18.0 0.00 0.00 0.00 45 1014.4
20260501205531 59 354 4.0 14.0 0.00 0.00 0.00 43 1014.3
20260501205031 59 339 6.0 14.0 0.00 0.00 0.00 42 1014.5
20260501204544 60 39 4.0 13.0 0.00 0.00 0.00 44 1014.6
20260501204027 60 339 5.0 14.0 0.00 0.00 0.00 42 1014.5
20260501203527 60 6 7.0 14.0 0.00 0.00 0.00 43 1014.6
20260501203044 60 63 5.0 15.0 0.00 0.00 0.00 43 1014.5
20260501202527 59 347 9.0 17.0 0.00 0.00 0.00 43 1014.6
20260501202031 59 5 10.0 17.0 0.00 0.00 0.00 45 1014.7
20260501201546 59 10 6.0 15.0 0.00 0.00 0.00 46 1014.7
20260501201031 59 344 6.0 15.0 0.00 0.00 0.00 47 1014.7
20260501200528 58 356 8.0 14.0 0.00 0.00 0.00 48 1014.6
20260501200049 59 338 7.0 13.0 0.00 0.00 0.00 46 1014.6
20260501195528 59 350 5.0 14.0 0.00 0.00 0.00 48 1014.6
20260501195028 59 356 5.0 14.0 0.00 0.00 0.00 45 1014.7
20260501194549 59 3 5.0 13.0 0.00 0.00 0.00 44 1014.7
20260501194027 59 59 8.0 12.0 0.00 0.00 0.00 44 1014.9
20260501193527 59 359 7.0 14.0 0.00 0.00 0.00 43 1014.6
20260501193047 58 1 5.0 14.0 0.00 0.00 0.00 45 1014.8
20260501192527 57 337 8.0 19.0 0.00 0.00 0.00 45 1014.7
20260501192027 57 8 10.0 19.0 0.00 0.00 0.00 44 1014.6
20260501191543 58 347 7.0 13.0 0.00 0.00 0.00 45 1014.6
20260501191028 58 7 7.0 14.0 0.00 0.00 0.00 45 1014.7
20260501190531 58 4 7.0 14.0 0.00 0.00 0.00 46 1014.6
20260501190056 58 13 6.0 14.0 0.00 0.00 0.00 46 1014.6
20260501185530 59 24 1.0 15.0 0.00 0.00 0.00 45 1014.5
20260501185028 59 31 4.0 17.0 0.00 0.00 0.00 45 1014.6
20260501184547 60 297 8.0 17.0 0.00 0.00 0.00 47 1014.6
20260501184028 57 338 7.0 14.0 0.00 0.00 0.00 45 1014.4
20260501183528 58 44 7.0 15.0 0.00 0.00 0.00 48 1014.4
20260501183045 58 307 8.0 16.0 0.00 0.00 0.00 50 1014.5
20260501182527 57 18 7.0 16.0 0.00 0.00 0.00 51 1014.7
20260501182029 56 338 6.0 17.0 0.00 0.00 0.00 53 1015.0
20260501181544 56 354 10.0 17.0 0.00 0.00 0.00 51 1015.0
20260501181029 57 345 7.0 17.0 0.00 0.00 0.00 50 1015.1
20260501180531 57 7 9.0 16.0 0.00 0.00 0.00 50 1015.2
20260501180044 57 20 10.0 16.0 0.00 0.00 0.00 50 1014.9
20260501175528 58 356 8.0 12.0 0.00 0.00 0.00 45 1014.7
20260501175029 58 17 4.0 16.0 0.00 0.00 0.00 48 1014.7
20260501174540 57 338 8.0 16.0 0.00 0.00 0.00 49 1014.8
20260501174031 58 32 6.0 14.0 0.00 0.00 0.00 49 1014.7
20260501173528 58 13 5.0 13.0 0.00 0.00 0.00 49 1014.6
20260501173040 60 73 0.0 11.0 0.00 0.00 0.00 50 1014.7
20260501172528 58 0 6.0 11.0 0.00 0.00 0.00 51 1014.7
20260501172027 57 335 4.0 14.0 0.00 0.00 0.00 56 1014.8
20260501171546 56 15 7.0 14.0 0.00 0.00 0.00 54 1014.7
20260501171033 57 338 6.0 14.0 0.00 0.00 0.00 54 1014.8
20260501170529 57 60 5.0 14.0 0.00 0.00 0.00 54 1014.8
20260501170046 56 1 5.0 14.0 0.00 0.00 0.00 56 1015.0
20260501165531 57 1 4.0 11.0 0.00 0.00 0.00 56 1014.9
20260501165030 57 7 2.0 11.0 0.00 0.00 0.00 58 1014.7
20260501164544 56 328 5.0 10.0 0.00 0.00 0.00 58 1014.7
20260501164028 57 29 2.0 12.0 0.00 0.00 0.00 56 1014.7
20260501163528 57 339 5.0 12.0 0.00 0.00 0.00 56 1014.8
20260501163042 56 358 4.0 13.0 0.00 0.00 0.00 57 1014.7
20260501162528 56 334 5.0 13.0 0.00 0.00 0.00 59 1014.8
20260501162028 56 349 6.0 13.0 0.00 0.00 0.00 57 1014.9
20260501161547 56 335 5.0 13.0 0.00 0.00 0.00 58 1014.7
20260501161027 57 1 5.0 14.0 0.00 0.00 0.00 59 1014.7
20260501160527 56 27 7.0 14.0 0.00 0.00 0.00 58 1014.6
20260501160105 55 17 8.0 16.0 0.00 0.00 0.00 61 1014.7